Date String (YYYY-MM-DD hh:mm:ss) UTC,Instrument flags,Ambient pressure (hPa),Sample flow (lpm),Bypass flow (lpm),Sample temperature (°C),Ambient temperature (°C),ASC tube jacket temperature (°C),LED temperature (°C),Box temperature (°C),Sample RH (%),Span deviation,Mass concentration (μg/m³),Mass concentration (μg/m³),Mass concentration (μg/m³)
DateTimeUTC,F1_M11,P_M11,Q1_M11,Q2_M11,T1_M11,T2_M11,T3_M11,T4_M11,T5_M11,U1_M11,ZSPAN_M11,X0_M11,X2_M11,X1_M11
2022-01-22 23:00:00,,0829.7,4.99,0.00,25.9,25.3,00.0,34.7,27.7,10.3,0000.0,0006.97,0004.83,0004.63
2022-01-22 23:01:00,,0829.7,4.99,0.00,25.9,25.3,00.0,34.7,27.7,10.2,0000.0,0006.96,0004.82,0004.63
2022-01-22 23:02:00,,0829.7,5.00,0.00,25.9,25.3,00.0,34.8,27.7,10.3,0000.0,0007.42,0004.81,0004.63
2022-01-22 23:03:00,,0829.7,5.00,0.00,25.9,25.3,00.0,34.8,27.7,10.3,0000.0,0007.38,0004.79,0004.62
2022-01-22 23:04:00,,0829.8,5.00,0.00,25.9,25.3,00.0,34.8,27.7,10.3,0000.0,0007.32,0004.77,0004.62
2022-01-22 23:05:00,,0829.7,5.00,0.00,25.9,25.3,00.0,34.8,27.7,10.2,0000.0,0007.31,0004.77,0004.62
2022-01-22 23:06:00,,0829.8,5.00,0.00,25.9,25.3,00.0,34.8,27.7,10.4,0000.0,0007.24,0004.77,0004.63
2022-01-22 23:07:00,,0829.8,5.00,0.00,25.9,25.3,00.0,34.8,27.7,10.4,0000.0,0007.27,0004.78,0004.63
2022-01-22 23:08:00,,0829.8,5.01,0.00,25.9,25.3,00.0,34.8,27.7,10.3,0000.0,0007.25,0004.77,0004.63
2022-01-22 23:09:00,,0829.8,5.01,0.00,25.9,25.3,00.0,34.8,27.7,10.3,0000.0,0007.41,0004.79,0004.63
2022-01-22 23:10:00,,0829.8,5.00,0.00,25.9,25.3,00.0,34.8,27.7,10.3,0000.0,0007.50,0004.82,0004.65
2022-01-22 23:11:00,,0829.8,5.00,0.00,25.9,25.3,00.0,34.8,27.7,10.4,0000.0,0007.38,0004.84,0004.65
2022-01-22 23:12:00,,0829.8,4.99,0.00,25.9,25.3,00.0,34.8,27.7,10.4,0000.0,0007.11,0004.87,0004.67
2022-01-22 23:13:00,,0829.8,5.00,0.00,25.9,25.3,00.0,34.8,27.7,10.4,0000.0,0006.72,0004.92,0004.69
2022-01-22 23:14:00,,0829.9,5.00,0.00,25.9,25.3,00.0,34.8,27.7,10.5,0000.0,0006.92,0004.93,0004.70
2022-01-22 23:15:00,,0829.9,5.00,0.00,25.9,25.3,00.0,34.8,27.7,10.5,0000.0,0007.10,0004.97,0004.72
2022-01-22 23:16:00,,0829.9,5.00,0.00,25.9,25.4,00.0,34.8,27.7,10.5,0000.0,0007.14,0005.00,0004.75
2022-01-22 23:17:00,,0829.9,5.00,0.00,25.9,25.4,00.0,34.9,27.8,10.6,0000.0,0007.51,0005.07,0004.78
2022-01-22 23:18:00,,0829.8,5.00,0.00,26.0,25.3,00.0,34.9,27.8,10.6,0000.0,0008.01,0005.11,0004.81
2022-01-22 23:19:00,,0829.9,5.01,0.00,26.0,25.3,00.0,34.9,27.8,10.6,0000.0,0008.24,0005.14,0004.83
2022-01-22 23:20:00,,0829.8,5.00,0.00,26.0,25.4,00.0,34.9,27.8,10.6,0000.0,0008.21,0005.17,0004.86
2022-01-22 23:21:00,,0829.9,5.01,0.00,26.0,25.4,00.0,34.9,27.8,10.7,0000.0,0008.19,0005.18,0004.87
2022-01-22 23:22:00,,0829.9,5.00,0.00,26.0,25.4,00.0,34.9,27.7,10.7,0000.0,0008.20,0005.17,0004.88
2022-01-22 23:23:00,,0829.9,4.99,0.00,26.0,25.4,00.0,34.9,27.8,10.7,0000.0,0008.41,0005.19,0004.88
2022-01-22 23:24:00,,0830.0,4.99,0.00,26.0,25.3,00.0,34.9,27.7,10.7,0000.0,0008.57,0005.18,0004.89
2022-01-22 23:25:00,,0830.0,5.00,0.00,26.0,25.3,00.0,34.9,27.8,10.7,0000.0,0008.42,0005.16,0004.90
2022-01-22 23:26:00,,0830.0,4.99,0.00,26.0,25.3,00.0,34.9,27.8,10.8,0000.0,0008.36,0005.15,0004.90
2022-01-22 23:27:00,,0830.0,5.00,0.00,26.0,25.3,00.0,34.9,27.8,10.8,0000.0,0008.42,0005.16,0004.90
2022-01-22 23:28:00,,0830.0,5.01,0.00,26.0,25.3,00.0,34.9,27.8,10.8,0000.0,0008.33,0005.14,0004.90
2022-01-22 23:29:00,,0830.0,4.99,0.00,26.0,25.3,00.0,34.9,27.8,10.8,0000.0,0008.14,0005.13,0004.89
2022-01-22 23:30:00,,0830.0,4.99,0.00,26.0,25.3,00.0,34.9,27.8,10.8,0000.0,0008.05,0005.13,0004.90
2022-01-22 23:31:00,,0829.9,5.00,0.00,26.0,25.4,00.0,34.9,27.8,10.8,0000.0,0008.07,0005.14,0004.89
2022-01-22 23:32:00,,0830.0,5.01,0.00,26.0,25.4,00.0,34.9,27.8,10.8,0000.0,0008.10,0005.15,0004.89
2022-01-22 23:33:00,,0830.0,5.01,0.00,26.0,25.4,00.0,34.9,27.8,10.8,0000.0,0008.09,0005.16,0004.90
2022-01-22 23:34:00,,0830.0,4.99,0.00,26.0,25.4,00.0,34.9,27.8,10.8,0000.0,0007.98,0005.18,0004.92
2022-01-22 23:35:00,,0830.0,5.00,0.00,26.0,25.3,00.0,34.9,27.8,10.8,0000.0,0007.78,0005.20,0004.93
2022-01-22 23:36:00,,0830.0,4.99,0.00,26.0,25.3,00.0,34.9,27.8,10.8,0000.0,0007.87,0005.24,0004.95
2022-01-22 23:37:00,,0830.1,5.00,0.00,26.0,25.3,00.0,34.9,27.8,10.8,0000.0,0008.09,0005.28,0004.96
2022-01-22 23:38:00,,0830.1,5.02,0.00,26.0,25.3,00.0,34.9,27.8,10.8,0000.0,0008.28,0005.29,0004.97
2022-01-22 23:39:00,,0830.1,5.01,0.00,26.0,25.3,00.0,34.9,27.8,10.9,0000.0,0008.24,0005.29,0004.98
2022-01-22 23:40:00,,0830.0,4.99,0.00,26.0,25.3,00.0,34.9,27.8,10.9,0000.0,0008.13,0005.29,0004.99
2022-01-22 23:41:00,,0830.1,5.00,0.00,26.0,25.2,00.0,34.9,27.7,10.9,0000.0,0007.83,0005.30,0005.00
2022-01-22 23:42:00,,0830.0,4.99,0.00,25.9,25.2,00.0,34.9,27.7,10.9,0000.0,0007.83,0005.32,0005.02
2022-01-22 23:43:00,,0830.0,5.00,0.00,25.9,25.2,00.0,34.9,27.7,10.9,0000.0,0007.90,0005.35,0005.05
2022-01-22 23:44:00,,0830.0,4.99,0.00,25.9,25.2,00.0,34.9,27.7,11.0,0000.0,0008.29,0005.39,0005.08
2022-01-22 23:45:00,,0830.0,5.00,0.00,25.9,25.2,00.0,34.9,27.7,10.9,0000.0,0008.70,0005.40,0005.10
2022-01-22 23:46:00,,0830.0,4.99,0.00,25.9,25.2,00.0,34.9,27.7,10.9,0000.0,0008.78,0005.40,0005.11
2022-01-22 23:47:00,,0830.0,5.02,0.00,25.9,25.1,00.0,34.9,27.6,10.9,0000.0,0008.73,0005.39,0005.12
2022-01-22 23:48:00,,0830.0,5.00,0.00,25.9,25.1,00.0,34.9,27.6,11.0,0000.0,0008.56,0005.39,0005.13
2022-01-22 23:49:00,,0830.0,5.00,0.00,25.8,25.1,00.0,34.9,27.6,11.0,0000.0,0008.38,0005.42,0005.16
2022-01-22 23:50:00,,0830.0,5.00,0.00,25.8,25.1,00.0,34.9,27.6,11.0,0000.0,0008.43,0005.44,0005.17
2022-01-22 23:51:00,,0830.0,5.00,0.00,25.8,25.1,00.0,34.8,27.5,11.0,0000.0,0008.45,0005.44,0005.18
2022-01-22 23:52:00,,0830.0,4.99,0.00,25.7,25.0,00.0,34.8,27.5,11.1,0000.0,0008.67,0005.47,0005.19
2022-01-22 23:53:00,,0830.0,5.00,0.00,25.7,25.0,00.0,34.8,27.4,11.1,0000.0,0009.13,0005.48,0005.19
2022-01-22 23:54:00,,0830.0,5.00,0.00,25.7,24.9,00.0,34.8,27.3,11.1,0000.0,0009.26,0005.49,0005.18
2022-01-22 23:55:00,,0830.1,5.01,0.00,25.6,24.9,00.0,34.8,27.3,11.1,0000.0,0008.87,0005.48,0005.17
2022-01-22 23:56:00,,0830.1,4.99,0.00,25.6,24.8,00.0,34.7,27.3,11.2,0000.0,0009.43,0005.49,0005.18
2022-01-22 23:57:00,,0830.1,4.99,0.00,25.5,24.8,00.0,34.7,27.2,11.2,0000.0,0009.39,0005.49,0005.18
2022-01-22 23:58:00,,0830.1,5.02,0.00,25.5,24.7,00.0,34.7,27.2,11.3,0000.0,0009.56,0005.54,0005.20
2022-01-22 23:59:00,,0830.1,5.00,0.00,25.5,24.7,00.0,34.7,27.2,11.3,0000.0,0009.65,0005.57,0005.20
